sat.trackr.live / text

‹ back to catalog

STARLINK-5716

NORAD 56504 · 2023-065B

PAYLOAD ACTIVE UNKNOWN

§ Identity

Operator
Country
US
Launch date
2023-05-14
Launch site
AFETR
Launch vehicle
Mass (kg)
RCS (m²)

Purposes: comms

External: N2YO · Heavens-Above · Gunter

§ Orbital elements

Epoch: 2026-09-20T05:43:28.771680Z

Period
94.27 min
Inclination
43.0016°
Eccentricity
0.0001017
Mean motion
15.27577541 rev/d
Perigee alt
482.4 km
Apogee alt
483.8 km
Semi-major
6,861.2 km
B*
7.6719e-7
RAAN
193.7610°
Arg perigee
248.3690°
Mean anomaly
111.7053°
Rev number
18,635

§ Raw data

STARLINK-57161 56504U 23065B   26263.23852745 -.00000241  00000+0  76719-6 0  99942 56504  43.0016 193.7610 0001017 248.3690 111.7053 15.27577541186359

JSON: /api/v1/satellites/56504 · /tle

For live sub-satellite position, see the globe view (requires WebGL).

§ Visibility from observer

Set your observer location to see the next 7 days of passes ≥ 10°. The values pass through the URL so the page stays shareable.

No JS? Fill the form by hand. The geolocation button needs JavaScript.